Weather History for North Bend, OR

Change the Weather History Date:

Tuesday, May 21, 2013

  Actual Average Record
Temperature  
Mean Temperature 51 °F 54 °F  
Max Temperature 55 °F 59 °F 87 °F (1914)
Min Temperature 46 °F 48 °F 35 °F (1909)
Degree Days  
Heating Degree Days 14 11  
Month to date heating degree days 182 266  
Since 1 July heating degree days 4162 4452  
Cooling Degree Days 0 0  
Month to date cooling degree days 4 0  
Year to date cooling degree days 4 0  
Moisture  
Dew Point 46 °F    
Average Humidity 87    
Maximum Humidity 100    
Minimum Humidity 55    
Precipitation  
Precipitation 0.44 in 0.11 in 1.24 in (1990)
Month to date precipitation 0.61 2.34  
Year to date precipitation 12.95 33.12  
Sea Level Pressure  
Sea Level Pressure 30.02 in    
Wind  
Wind Speed 12 mph (West)    
Max Wind Speed 22 mph    
Max Gust Speed 30 mph    
Visibility 9 miles    
Events      
T = Trace of Precipitation, MM = Missing Value Source: NWS Daily Summary

Daily Weather History Graph

Daily Weather History Graph

Search for Another Location

Airport:

Trip Planner

Search our weather history database for the weather conditions in past years. The results will help you decide how hot, cold, wet, or windy it might be!

Date:

Astronomy

May. 21, 2013 Rise Set
Actual Time 5:46 AM PDT 8:41 PM PDT
Civil Twilight 5:12 AM PDT 9:15 PM PDT
Nautical Twilight 4:30 AM PDT 9:58 PM PDT
Astronomical Twilight 3:39 AM PDT 10:48 PM PDT
Moon 4:55 PM PDT (5/21) 3:24 AM PDT (5/21)
Length of Visible Light 16h 02m
Length of Day
14h 54m
Waxing Gibbous, 85% of the Moon is Illuminated
May 21
Waxing Gibbous
May 24
Full
May 31
Last Quarter
Jun 8
New
Jun 16
First Quarter

Hourly Weather History & Observations

Time (PDT) Temp. Windchill Dew Point Humidity Pressure Visibility Wind Dir Wind Speed Gust Speed Precip Events Conditions
12:15 AM 51.8 °F - 46.4 °F 82% 30.02 in 10.0 mi SSW 3.5 mph - N/A   Overcast
12:35 AM 51.8 °F - 48.2 °F 88% 30.02 in 10.0 mi SW 3.5 mph - N/A   Overcast
12:55 AM 51.8 °F - 48.2 °F 88% 30.01 in 10.0 mi SSW 4.6 mph - N/A   Overcast
1:15 AM 51.8 °F - 48.2 °F 88% 30.00 in 8.0 mi South 4.6 mph - N/A   Overcast
1:35 AM 51.8 °F - 48.2 °F 88% 30.00 in 10.0 mi South 5.8 mph - N/A   Overcast
1:55 AM 50.0 °F - 48.2 °F 94% 29.99 in 7.0 mi South 5.8 mph - N/A   Overcast
2:15 AM 50.0 °F - 48.2 °F 94% 29.98 in 9.0 mi SSE 5.8 mph - N/A   Overcast
2:35 AM 50.0 °F - 48.2 °F 94% 29.97 in 4.0 mi SSE 5.8 mph - N/A   Overcast
2:55 AM 50.0 °F - 50.0 °F 100% 29.96 in 5.0 mi SSE 4.6 mph - N/A   Overcast
3:15 AM 50.0 °F - 50.0 °F 100% 29.95 in 5.0 mi SSE 4.6 mph - N/A   Overcast
3:35 AM 50.0 °F - 50.0 °F 100% 29.93 in 5.0 mi SSE 5.8 mph - N/A   Overcast
3:55 AM 50.0 °F - 50.0 °F 100% 29.93 in 7.0 mi SSE 6.9 mph - N/A   Overcast
4:15 AM 50.0 °F - 50.0 °F 100% 29.92 in 4.0 mi SE 9.2 mph - N/A   Overcast
4:35 AM 50.0 °F - 50.0 °F 100% 29.92 in 7.0 mi SE 8.1 mph - 0.01 in   Overcast
4:55 AM 50.0 °F - 48.2 °F 94% 29.92 in 10.0 mi SE 9.2 mph - 0.01 in   Overcast
5:15 AM 50.0 °F - 50.0 °F 100% 29.91 in 10.0 mi SSE 8.1 mph - N/A   Mostly Cloudy
5:35 AM 50.0 °F - 48.2 °F 94% 29.90 in 10.0 mi SE 9.2 mph - N/A   Overcast
5:55 AM 50.0 °F - 48.2 °F 94% 29.90 in 10.0 mi SSE 6.9 mph - 0.01 in   Mostly Cloudy
6:15 AM 50.0 °F - 48.2 °F 94% 29.90 in 9.0 mi SSE 4.6 mph - N/A   Overcast
6:35 AM 50.0 °F - 48.2 °F 94% 29.90 in 3.0 mi SSE 5.8 mph - N/A   Overcast
6:55 AM 50.0 °F - 50.0 °F 100% 29.90 in 5.0 mi South 4.6 mph - N/A   Overcast
7:15 AM 50.0 °F - 50.0 °F 100% 29.90 in 5.0 mi SSE 6.9 mph - 0.01 in   Overcast
7:35 AM 50.0 °F - 50.0 °F 100% 29.90 in 5.0 mi South 11.5 mph 16.1 mph 0.02 in   Overcast
7:55 AM 51.8 °F - 50.0 °F 94% 29.90 in 10.0 mi South 9.2 mph 16.1 mph 0.02 in   Mostly Cloudy
8:15 AM 51.8 °F - 50.0 °F 94% 29.90 in 9.0 mi SSW 5.8 mph - N/A   Overcast
8:35 AM 51.8 °F - 50.0 °F 94% 29.90 in 7.0 mi SSW 5.8 mph - N/A   Overcast
8:55 AM 51.8 °F - 50.0 °F 94% 29.90 in 10.0 mi SSW 4.6 mph - N/A   Overcast
9:15 AM 51.8 °F - 50.0 °F 94% 29.91 in 10.0 mi SW 6.9 mph - N/A   Overcast
9:35 AM 51.8 °F - 51.8 °F 100% 29.91 in 9.0 mi SW 5.8 mph - 0.02 in   Overcast
9:55 AM 51.8 °F - 51.8 °F 100% 29.93 in 2.0 mi WNW 18.4 mph 27.6 mph 0.06 in   Overcast
10:15 AM 48.2 °F - 48.2 °F 100% 29.94 in 2.0 mi WNW 10.4 mph - 0.06 in   Overcast
10:35 AM 51.8 °F - 50.0 °F 94% 29.95 in 8.0 mi NW 19.6 mph - 0.07 in   Overcast
10:55 AM 48.2 °F - 48.2 °F 100% 29.97 in 5.0 mi NNW 21.9 mph 29.9 mph 0.11 in   Overcast
11:15 AM 48.2 °F - 46.4 °F 93% 29.99 in 7.0 mi NNW 24.2 mph 33.4 mph 0.01 in   Overcast
11:35 AM 48.2 °F - 46.4 °F 93% 30.01 in 7.0 mi NW 17.3 mph 29.9 mph 0.02 in   Mostly Cloudy
11:55 AM 48.2 °F - 46.4 °F 93% 30.03 in 10.0 mi NW 18.4 mph 23.0 mph 0.05 in   Overcast
12:15 PM 48.2 °F - 46.4 °F 93% 30.04 in 10.0 mi NNW 16.1 mph 23.0 mph 0.04 in   Overcast
12:35 PM 48.2 °F - 46.4 °F 93% 30.05 in 10.0 mi NW 13.8 mph 21.9 mph 0.07 in   Overcast
12:55 PM 48.2 °F - 46.4 °F 93% 30.06 in 10.0 mi NNW 11.5 mph 18.4 mph 0.07 in   Overcast
1:15 PM 50.0 °F - 46.4 °F 87% 30.06 in 10.0 mi NW 10.4 mph 16.1 mph 0.01 in   Overcast
1:35 PM 48.2 °F - 46.4 °F 93% 30.07 in 5.0 mi WNW 17.3 mph 23.0 mph 0.05 in   Overcast
1:55 PM 50.0 °F - 48.2 °F 94% 30.07 in 10.0 mi NNW 10.4 mph 17.3 mph 0.06 in   Mostly Cloudy
2:15 PM 51.8 °F - 48.2 °F 88% 30.08 in 10.0 mi NW 11.5 mph - N/A   Overcast
2:35 PM 51.8 °F - 46.4 °F 82% 30.08 in 10.0 mi NW 21.9 mph 27.6 mph N/A   Overcast
2:55 PM 51.8 °F - 46.4 °F 82% 30.09 in 10.0 mi WNW 18.4 mph - N/A   Mostly Cloudy
3:15 PM 51.8 °F - 46.4 °F 82% 30.10 in 10.0 mi NW 18.4 mph 21.9 mph N/A   Overcast
3:35 PM 51.8 °F - 44.6 °F 76% 30.10 in 10.0 mi NNW 9.2 mph - N/A   Mostly Cloudy
3:55 PM 53.6 °F - 46.4 °F 77% 30.10 in 10.0 mi WNW 9.2 mph - N/A   Overcast
4:15 PM 51.8 °F - 44.6 °F 76% 30.11 in 10.0 mi WNW 25.3 mph 32.2 mph N/A   Overcast
4:35 PM 53.6 °F - 42.8 °F 67% 30.11 in 10.0 mi WNW 19.6 mph 31.1 mph N/A   Mostly Cloudy
4:55 PM 55.4 °F - 39.2 °F 54% 30.11 in 10.0 mi West 17.3 mph 20.7 mph N/A   Scattered Clouds
5:15 PM 51.8 °F - 41.0 °F 67% 30.11 in 10.0 mi NW 11.5 mph 20.7 mph N/A   Mostly Cloudy
5:35 PM 53.6 °F - 42.8 °F 67% 30.11 in 10.0 mi WNW 16.1 mph 19.6 mph 0.01 in   Mostly Cloudy
5:55 PM 51.8 °F - 44.6 °F 76% 30.11 in 10.0 mi WNW 19.6 mph 23.0 mph 0.01 in   Mostly Cloudy
6:15 PM 53.6 °F - 42.8 °F 67% 30.11 in 10.0 mi WNW 19.6 mph 25.3 mph N/A   Mostly Cloudy
6:35 PM 51.8 °F - 42.8 °F 71% 30.11 in 10.0 mi WNW 18.4 mph 25.3 mph N/A   Mostly Cloudy
6:55 PM 51.8 °F - 41.0 °F 67% 30.11 in 10.0 mi West 16.1 mph - N/A   Mostly Cloudy
7:15 PM 51.8 °F - 42.8 °F 71% 30.11 in 10.0 mi WNW 15.0 mph - N/A   Mostly Cloudy
7:35 PM 48.2 °F - 42.8 °F 82% 30.11 in 10.0 mi WNW 13.8 mph - 0.02 in   Overcast
7:55 PM 50.0 °F - 42.8 °F 76% 30.11 in 10.0 mi WNW 17.3 mph - 0.02 in   Mostly Cloudy
8:15 PM 48.2 °F - 41.0 °F 76% 30.11 in 10.0 mi WNW 12.7 mph - N/A   Partly Cloudy
8:35 PM 48.2 °F - 41.0 °F 76% 30.11 in 10.0 mi WNW 11.5 mph - N/A   Scattered Clouds
8:55 PM 48.2 °F - 41.0 °F 76% 30.12 in 10.0 mi West 17.3 mph 24.2 mph 0.01 in   Overcast
9:15 PM 46.4 °F 41.9 °F 42.8 °F 87% 30.12 in 10.0 mi NW 9.2 mph - N/A   Mostly Cloudy
9:35 PM 48.2 °F - 42.8 °F 82% 30.12 in 10.0 mi WNW 13.8 mph - N/A   Scattered Clouds
9:55 PM 48.2 °F - 42.8 °F 82% 30.12 in 10.0 mi WNW 18.4 mph - N/A   Scattered Clouds
10:15 PM 48.2 °F - 42.8 °F 82% 30.12 in 10.0 mi West 13.8 mph - N/A   Mostly Cloudy
10:35 PM 48.2 °F - 41.0 °F 76% 30.12 in 10.0 mi WNW 11.5 mph - N/A   Partly Cloudy
10:55 PM 48.2 °F - 41.0 °F 76% 30.11 in 10.0 mi West 12.7 mph - N/A   Clear
11:15 PM 48.2 °F - 42.8 °F 82% 30.11 in 10.0 mi WSW 10.4 mph - N/A   Scattered Clouds
11:35 PM 48.2 °F - 42.8 °F 82% 30.11 in 10.0 mi WSW 6.9 mph - N/A   Mostly Cloudy
11:55 PM 48.2 °F - 42.8 °F 82% 30.11 in 10.0 mi WSW 10.4 mph - N/A   Mostly Cloudy